Home   Weather   Luanda   Past weeks

Flag for Angola Past Weather in Luanda, Angola — Yesterday and Last 2 Weeks

Now
77 °F

Clear.


Feels Like: 78 °F
Forecast: 72 / 87 °F
Wind: 7 mph from South

Location: Luanda Airport

Current Time: Apr 24, 2017 at 2:57:47 am

Latest Report: Apr 24, 2017 at 12:00 am


Visibility: 10 mi

Pressure: 29.92 "Hg

Humidity: 89%

Dew Point: 73 °F

Location of LuandaLocation

Past Weather in Luanda — Graph

°F

Luanda Temperature Yesterday

Maximum temperature yesterday: 84 °F (at 12:00 pm)
Minimum temperature yesterday: 75 °F (at 6:00 am)
Average temperature yesterday: 80 °F

High & Low Weather Summary for the Past Weeks

 TemperatureHumidityPressure
High93 °F (Apr 9, 1:00 pm)100% (Apr 14, 12:00 pm)29.92 "Hg (Apr 14, 12:00 pm)
Low73 °F (Apr 17, 2:00 am)49% (Apr 9, 1:00 pm)29.65 "Hg (Apr 11, 3:00 pm)
Average81 °F83%29.80 "Hg
* Reported Apr 9 12:00 am — Apr 24 12:00 am, Luanda, Weather by CustomWeather, © 2017

Note: Actual official high and low records may vary slightly from our data, if they occured in-between our weather recording intervals... More about our weather records

Advertising

Luanda Weather History for the Previous 24 Hours

Scroll right to see more
 ConditionsComfort  
Time TempWeatherWind HumidityBarometerVisibility
12:00 am
Mon, Apr 24
77 °FClear.7 mph89%29.92 "Hg10 mi
11:00 pm
Sun, Apr 23
77 °FClear.7 mph89%29.92 "Hg10 mi
10:00 pm77 °FClear.7 mph89%29.89 "Hg10 mi
9:00 pm77 °FClear.7 mph83%29.89 "Hg10 mi
8:00 pm79 °FClear.9 mph79%29.86 "Hg10 mi
7:00 pm79 °FClear.7 mph84%29.83 "Hg10 mi
6:00 pm81 °FPassing clouds.12 mph74%29.80 "HgN/A
5:00 pm81 °FPartly sunny.12 mph74%29.80 "HgN/A
4:00 pm82 °FPassing clouds.9 mph70%29.80 "HgN/A
3:00 pm82 °FScattered clouds.14 mph70%29.80 "HgN/A
2:00 pm84 °FScattered clouds.9 mph70%29.83 "HgN/A
1:00 pm84 °FScattered clouds.12 mph70%29.86 "HgN/A
12:00 pm84 °FScattered clouds.9 mph70%29.89 "HgN/A
11:00 am82 °FScattered clouds.9 mph79%29.92 "HgN/A
10:00 am82 °FScattered clouds.5 mph79%29.92 "HgN/A
9:00 am82 °FScattered clouds.5 mph74%29.89 "HgN/A
8:00 am79 °FScattered clouds.3 mph89%29.89 "HgN/A
7:00 am75 °FScattered clouds.3 mph94%29.86 "HgN/A
6:00 am75 °FPassing clouds.3 mph94%29.83 "HgN/A
5:00 am77 °FPassing clouds.3 mph89%29.83 "HgN/A
4:00 am77 °FPassing clouds.5 mph94%29.83 "HgN/A
3:00 am77 °FPassing clouds.6 mph94%29.83 "HgN/A
2:00 am79 °FPassing clouds.7 mph89%29.83 "HgN/A
Weather by CustomWeather, © 2017

See weather overviewHow to use our weather pages